Wind_Speed
5 4 5 3 2 3 4 4 6 7 4 5 6 7 6 6 5 8 7 8 8 8 6 8 9 6 5 7 8 4 2 3 3 3 3 4 5 6 7 8 9 10 10 11 11 12 13 13 13 13 12 12 12 11 11 10 10 11 12 13 13 15 17 19 22 24 27 32 35 37 37 36 36 38 38 37 37 36 32 29 26 23 22 22 22 22 21
5 4 5 3 3 3 3 5 8 6 6 8 8 7 6 7 9 9 5 7 9 7 6 8 9 6 5 8 8 3 4 3 3 4 3 4 6 7 8 9 10 11 12 13 14 15 15 16 17 17 17 18 18 17 16 15 14 14 15 16 16 16 18 18 19 19 21 24 28 29 30 32 35 37 36 34 34 33 30 27 25 22 22 22 22 22 21
5 5 4 3 5 5 5 7 7 5 5 6 6 6 5 5 7 8 5 6 9 7 7 12 13 9 6 5 4 4 3 3 4 4 4 5 7 8 10 10 11 12 14 15 16 17 18 19 20 20 21 22 22 22 22 21 20 20 20 20 19 20 20 20 20 20 20 21 22 22 23 26 29 33 35 34 31 31 31 28 24 22 22 22 22 22 20
5 3 4 6 3 3 7 8 7 7 6 6 6 5 5 6 6 7 6 5 7 6 6 10 11 8 4 6 7 4 2 3 4 3 5 7 9 11 12 13 14 15 16 17 19 20 20 21 22 23 23 24 25 25 25 26 25 25 25 25 25 24 24 22 22 22 22 22 23 22 22 24 27 30 32 31 30 32 31 28 26 25 24 24 23 22 20
5 4 4 3 3 5 7 7 8 11 11 9 7 4 4 7 7 6 6 6 5 4 3 5 5 3 3 5 4 1 1 2 2 4 8 10 12 13 14 15 16 17 18 19 20 21 22 23 23 24 25 25 26 26 27 28 28 28 28 27 27 28 27 25 24 23 23 24 24 24 23 24 27 29 27 28 31 32 30 28 27 27 25 24 22 20 18
5 5 2 2 2 5 7 5 6 9 10 10 10 8 7 7 5 4 4 3 2 2 3 6 5 3 2 1 1 2 1 4 2 6 10 12 14 15 16 17 17 18 19 19 20 21 22 23 24 24 25 26 27 28 28 29 29 29 29 29 28 28 27 27 25 24 24 25 25 25 25 25 27 27 24 26 30 31 29 28 28 26 24 22 20 18 17
3 2 2 2 4 7 5 4 3 3 3 5 8 8 6 5 5 5 5 4 4 5 6 5 4 2 1 3 4 4 2 4 1 9 12 13 15 16 17 18 18 19 19 20 21 22 22 23 24 25 27 28 29 30 30 30 31 30 31 31 30 29 27 26 25 24 24 25 26 27 25 25 26 25 23 26 31 31 28 27 26 24 21 19 18 18 17
1 1 3 3 5 5 5 6 3 1 2 2 1 4 5 4 2 3 4 5 5 4 3 3 1 2 5 6 6 6 5 5 3 11 14 14 16 17 18 19 20 20 20 21 22 24 25 26 27 28 28 29 30 31 31 31 32 31 32 32 31 30 29 26 24 24 24 25 27 27 25 25 26 24 23 28 32 30 28 27 24 21 19 18 18 18 18
2 2 2 3 4 6 6 4 2 1 1 1 1 2 4 5 1 1 1 3 4 4 2 1 2 5 7 8 8 6 3 4 8 13 14 15 17 18 19 20 20 21 21 22 24 26 28 30 30 30 30 30 31 32 32 32 32 33 33 33 31 30 29 27 24 23 23 24 27 27 25 24 25 25 25 30 32 31 30 28 23 20 19 18 19 19 18
2 2 2 3 3 4 5 4 4 2 2 4 2 3 1 3 2 2 2 3 4 5 4 3 2 3 5 4 6 6 4 6 10 13 15 16 18 19 20 21 21 21 22 23 25 27 30 31 31 30 30 31 31 32 32 32 32 33 34 33 31 29 27 25 23 22 22 23 25 25 22 22 24 26 30 34 33 30 28 25 21 20 20 19 18 17 17
1 3 2 2 3 4 5 5 6 5 3 2 1 2 1 3 4 6 4 4 6 7 7 4 2 2 1 4 8 11 10 10 12 15 17 18 19 20 20 21 22 23 23 24 25 27 30 31 31 30 30 29 30 32 32 32 33 34 34 32 30 27 25 24 23 22 20 21 22 22 21 23 26 30 34 35 32 28 24 22 21 20 18 16 15 15 15
2 3 3 3 3 3 3 4 6 8 4 2 3 1 4 5 8 9 5 5 8 10 9 4 4 4 5 6 11 17 17 16 17 18 19 20 20 21 21 21 22 23 23 24 26 28 30 31 30 30 29 29 30 31 32 33 34 34 33 31 29 27 25 24 23 21 18 17 18 19 21 23 28 33 32 26 23 22 21 19 18 16 14 13 12 12 12
2 3 2 3 3 4 3 4 6 6 3 3 3 3 5 7 11 11 7 7 10 11 10 6 6 9 11 12 16 19 19 21 21 20 20 21 21 22 23 23 24 24 25 26 29 31 31 30 29 28 28 29 30 31 32 34 36 35 34 32 31 29 27 24 22 18 15 15 17 19 22 27 33 34 29 21 18 17 16 14 12 11 10 9 8 7 7
2 3 2 2 3 3 2 2 4 6 3 2 3 5 8 9 10 11 11 11 12 13 12 10 11 15 17 17 19 20 21 23 24 24 24 23 22 23 23 24 25 26 28 30 32 32 30 27 26 25 26 29 31 32 34 35 36 36 35 35 34 31 26 21 17 14 14 17 20 24 28 32 31 29 24 19 16 14 13 11 9 7 5 2 2 4 6
1 1 1 1 3 3 2 1 3 5 2 4 9 12 13 10 9 12 14 15 15 15 15 16 17 19 20 22 23 24 25 26 26 26 26 25 25 25 25 26 26 28 31 33 33 31 27 24 23 23 25 28 31 33 35 35 34 34 34 34 31 25 19 15 14 15 17 22 26 30 32 29 25 21 19 15 13 11 9 7 6 5 3 4 5 6 8
1 1 2 3 3 3 2 1 1 1 4 13 17 16 13 11 11 14 16 17 17 16 17 19 21 22 24 26 27 28 29 29 28 27 26 25 26 26 27 27 27 29 32 33 30 27 24 22 22 23 24 28 31 33 33 31 30 31 31 26 19 14 13 15 18 22 27 31 32 31 28 24 21 19 17 15 13 10 8 7 7 7 7 7 8 9 10
2 4 6 7 10 10 8 6 7 7 15 21 19 16 15 15 14 16 18 19 18 17 18 20 22 23 25 26 27 29 30 31 30 28 26 25 26 27 28 28 28 29 30 28 26 24 22 21 22 23 24 27 29 29 28 28 27 25 21 15 12 14 17 23 29 33 33 32 29 26 23 19 18 18 17 14 12 10 9 8 8 8 8 9 10 11 12
3 5 7 9 14 17 16 11 11 16 23 22 16 15 16 16 17 19 20 20 19 19 20 22 25 26 27 28 28 28 29 31 30 29 27 25 26 27 28 28 28 28 26 23 22 21 21 21 21 21 22 24 25 25 25 25 21 15 10 11 16 22 27 32 35 34 32 30 27 25 23 20 18 17 15 14 13 12 11 10 10 10 10 11 12 13 13
3 4 4 4 10 17 19 19 22 26 25 18 13 15 18 18 18 20 20 21 22 23 24 26 28 29 29 29 29 29 29 30 29 28 27 26 26 26 27 28 27 24 22 21 20 20 21 21 19 19 20 22 20 19 18 16 11 8 14 21 28 33 36 37 37 35 34 33 30 27 24 21 18 16 15 15 16 15 13 12 12 11 11 12 13 15 15
3 4 8 14 21 25 24 23 24 23 19 15 16 20 21 19 20 21 21 23 24 25 26 27 28 30 29 28 28 28 28 27 26 26 26 26 26 26 27 26 24 21 20 19 19 21 22 20 18 18 19 18 13 8 6 4 6 15 24 32 36 38 39 38 37 36 34 31 27 24 22 18 16 15 16 17 17 16 14 13 13 13 13 14 15 17 17
4 6 11 16 17 17 19 21 21 19 18 20 23 24 23 23 25 24 24 24 25 26 27 26 27 28 28 26 25 26 26 26 25 24 25 25 26 26 26 24 21 20 20 20 20 21 20 18 16 16 17 14 4 5 9 12 21 30 36 40 40 37 35 31 28 27 27 25 23 22 20 18 17 18 18 17 15 14 14 13 13 14 15 15 17 18 19
4 5 10 12 7 7 16 25 26 23 22 24 26 26 27 28 28 26 26 26 26 25 25 24 24 25 25 24 24 25 26 26 25 24 24 25 25 25 24 22 20 20 20 20 20 20 19 17 15 13 14 10 8 12 13 18 26 31 33 34 33 31 28 26 24 24 24 23 22 20 19 19 19 19 18 15 13 13 13 12 12 14 16 17 18 20 20
7 12 19 21 12 11 20 29 30 28 27 27 29 30 31 30 28 25 25 25 25 25 26 24 23 23 25 25 25 26 27 27 26 25 25 25 25 25 23 21 21 20 20 20 19 19 19 16 13 13 11 7 13 16 16 20 23 23 25 26 27 27 26 26 25 24 22 21 20 18 17 18 18 17 15 14 13 12 11 11 12 14 16 17 19 20 21
13 20 27 26 20 21 28 32 32 32 31 30 31 31 29 27 24 22 22 23 25 27 28 27 25 26 27 28 27 27 28 28 26 25 24 24 24 24 23 22 22 21 20 20 18 18 18 15 13 13 9 13 20 21 22 22 21 21 24 25 26 26 25 23 21 20 18 17 16 15 16 17 15 13 13 13 12 11 10 11 12 14 15 16 18 20 21
17 23 28 29 28 31 35 36 36 36 32 29 28 27 25 22 21 22 24 26 28 28 30 30 29 28 28 28 27 27 28 26 24 23 23 23 24 24 23 23 22 21 21 20 17 17 17 14 14 14 17 27 28 24 23 22 21 23 24 23 22 22 20 19 17 15 14 13 13 14 16 15 13 12 11 11 11 10 10 11 11 12 13 15 16 18 21
24 27 30 31 33 35 34 32 33 32 27 23 25 26 25 24 24 26 28 29 28 28 29 30 30 28 26 25 25 25 25 23 22 21 22 24 24 24 24 24 23 22 21 18 16 17 16 13 16 17 23 31 28 23 21 20 21 22 21 20 20 20 18 17 15 13 13 13 14 15 15 13 12 11 10 9 10 9 9 9 8 8 10 12 14 18 21
27 27 25 23 26 29 28 26 28 29 27 26 28 29 28 27 28 28 28 28 27 27 27 28 28 25 22 22 22 22 21 20 20 21 22 23 25 25 25 26 24 21 18 16 15 16 14 15 18 20 26 30 25 20 20 21 21 20 19 19 21 19 18 16 14 13 13 13 14 15 14 11 8 7 7 7 7 7 7 7 6 6 8 11 14 18 21
26 25 21 18 22 27 29 29 30 31 30 29 28 27 26 26 26 25 25 25 25 26 26 26 24 21 19 19 18 18 18 19 20 21 22 24 26 26 25 23 20 17 14 12 12 12 13 16 18 22 29 30 24 20 20 20 20 19 18 19 19 18 17 16 14 12 12 12 11 11 10 8 6 5 5 5 4 4 5 5 6 7 10 13 15 17 20
25 25 23 22 25 29 31 30 29 28 26 23 21 20 20 21 21 22 23 24 25 25 25 23 19 16 15 15 15 15 17 18 20 21 23 23 24 23 21 18 15 13 11 9 10 11 13 17 23 29 32 30 25 21 19 18 19 20 19 19 19 17 16 15 13 12 11 10 9 9 8 7 6 4 3 3 2 2 3 4 7 9 12 15 16 17 19
27 25 24 25 25 25 24 24 23 21 18 16 15 15 16 18 21 24 25 25 24 23 20 16 12 10 10 11 12 13 14 15 16 17 17 17 16 16 14 13 12 10 10 12 13 12 15 22 29 30 28 27 26 22 17 17 20 21 20 19 18 17 15 14 11 10 9 9 9 9 8 9 7 5 3 2 1 3 5 6 8 11 13 14 16 18 19
26 25 25 24 21 21 21 19 17 16 15 15 17 18 19 20 21 22 24 24 21 16 10 6 6 7 7 7 7 7 7 5 4 4 6 7 9 10 12 13 13 13 15 16 15 14 18 24 25 23 22 23 23 20 16 17 21 21 19 18 17 14 12 10 9 8 9 10 9 8 9 10 8 6 3 2 4 6 7 8 9 11 12 14 16 18 19
23 24 25 21 19 20 21 19 19 20 20 18 18 17 17 16 16 18 18 15 8 4 5 6 5 3 2 1 0 2 5 8 9 9 9 8 8 9 10 11 13 14 15 16 17 19 20 20 19 18 18 17 16 16 17 19 20 18 17 16 15 12 10 9 9 10 10 9 8 10 11 10 7 4 2 3 5 6 7 7 9 11 13 15 16 18 18
17 20 22 20 19 21 21 19 20 20 17 13 12 12 10 10 11 11 7 1 6 8 7 5 5 5 5 6 8 11 13 16 17 18 19 19 19 18 17 16 15 16 17 18 20 19 17 15 14 14 13 11 11 14 17 19 19 17 16 15 13 10 10 10 10 11 10 9 10 11 11 8 4 1 1 3 5 6 6 7 9 12 14 16 17 18 17
15 17 18 18 19 20 20 19 19 18 15 13 12 8 6 5 3 1 5 9 10 8 8 10 11 10 11 12 14 15 16 17 19 20 21 23 25 26 27 26 25 24 23 23 21 18 15 13 11 9 7 8 10 13 16 18 18 16 14 13 11 11 11 11 11 11 9 8 9 9 8 5 2 0 2 4 5 6 7 8 10 12 14 16 17 17 16
15 17 17 18 18 19 18 18 18 17 15 12 6 0 3 4 7 10 12 12 12 12 14 15 16 16 17 17 18 19 20 21 21 21 21 23 25 26 27 29 30 29 28 27 25 22 19 17 15 12 11 11 12 14 16 17 17 16 14 12 10 11 11 10 10 9 7 6 7 7 5 2 1 2 4 5 6 7 7 8 10 12 14 15 15 15 14
17 18 19 19 19 18 17 15 14 12 7 1 7 11 12 13 15 16 16 16 18 19 20 22 23 23 23 23 24 25 26 26 26 26 27 28 29 28 29 30 30 30 30 29 28 25 22 19 16 14 14 14 14 15 15 14 12 11 11 10 9 9 9 9 8 7 6 5 4 3 2 1 2 4 5 6 7 7 8 9 11 12 13 13 13 13 12
18 19 20 18 17 15 11 6 3 1 6 13 17 18 18 18 19 20 21 22 23 23 24 25 25 25 24 24 24 25 26 27 27 28 28 29 30 32 34 34 33 33 32 30 28 26 25 22 17 14 14 14 13 13 11 9 6 5 6 7 6 6 7 7 6 5 5 3 2 1 1 2 4 5 6 7 8 8 9 10 11 12 13 13 13 13 12
17 17 16 13 9 5 6 11 15 17 19 22 23 23 23 23 23 25 26 26 26 26 26 26 26 25 24 23 23 24 25 24 24 25 25 26 27 31 34 33 32 32 30 26 23 23 23 22 20 18 17 15 14 13 10 7 5 5 6 6 6 5 5 5 4 4 2 1 1 2 2 3 5 6 7 8 8 9 10 11 11 12 12 13 13 13 13
13 10 7 5 9 14 19 23 25 25 26 27 28 28 29 29 29 30 30 28 27 26 26 25 25 25 24 23 23 24 24 23 22 23 24 25 26 29 30 30 28 26 24 21 19 20 20 19 18 18 18 16 14 13 11 9 6 5 5 5 5 5 4 4 3 2 0 2 3 3 4 5 6 7 7 8 8 8 9 10 10 11 12 13 13 13 13
7 6 9 14 19 23 25 28 29 29 30 32 32 31 31 31 31 31 30 28 26 25 25 25 25 25 24 24 24 24 23 22 21 22 22 22 23 25 27 27 25 22 20 18 18 18 18 17 17 18 17 16 15 13 11 9 7 5 5 5 4 4 3 3 2 2 2 2 3 3 4 4 5 5 6 6 7 7 8 9 9 10 12 13 13 13 12
8 12 17 20 23 25 27 29 30 31 32 32 31 29 28 28 28 29 28 27 25 24 24 24 24 24 24 23 23 23 22 21 21 21 21 21 21 23 25 25 23 20 18 17 17 16 16 15 16 17 16 16 15 14 12 10 9 7 7 6 5 5 4 3 3 2 2 1 1 1 2 2 3 4 5 5 6 7 8 8 9 10 11 13 13 13 11
13 18 21 23 24 26 27 28 30 30 30 29 27 25 25 25 25 26 25 24 22 22 21 21 21 21 21 21 21 21 21 21 20 20 20 21 21 22 23 22 20 18 16 14 13 13 13 13 14 14 14 14 13 12 11 9 8 8 7 6 5 5 4 3 2 2 1 1 0 1 1 2 3 4 5 5 6 6 7 8 9 9 10 12 13 12 10
15 19 21 22 24 24 25 26 28 28 27 25 23 22 21 21 22 22 22 21 21 21 21 21 20 20 20 19 19 20 21 20 19 19 20 21 22 22 21 20 18 16 14 13 11 11 11 11 12 12 12 11 11 10 10 8 7 7 6 5 5 4 3 2 1 1 1 0 1 1 1 2 3 3 4 4 5 6 6 7 8 9 10 11 11 11 10
16 18 20 20 21 22 22 23 24 24 23 22 20 19 18 18 19 19 19 20 20 20 20 20 21 20 19 19 19 20 20 20 19 19 19 19 20 20 19 18 16 14 13 12 10 9 9 9 10 10 10 9 9 9 8 7 7 6 5 5 4 4 3 3 2 2 2 2 2 2 1 2 2 2 3 3 4 5 6 7 7 8 9 10 10 11 11
16 18 19 19 19 20 21 21 21 21 20 18 17 16 16 17 17 17 16 17 18 19 20 20 21 21 20 20 19 19 19 19 18 18 17 18 19 19 18 16 14 13 13 11 9 9 8 8 8 8 8 7 7 7 7 7 7 6 6 5 5 5 5 4 4 4 4 4 3 3 2 2 2 2 2 3 4 4 5 6 7 7 8 9 10 10 11
15 17 18 18 18 19 20 19 18 18 17 16 16 16 15 14 14 14 15 16 17 18 19 19 20 20 20 19 19 18 17 16 16 17 17 17 18 17 15 13 13 12 11 10 9 8 8 7 6 6 5 5 6 6 6 6 6 6 6 6 6 6 6 6 5 5 5 5 4 3 3 2 2 3 3 4 4 5 5 6 6 6 7 8 9 10 11
12 14 16 17 17 17 17 17 16 15 14 14 15 16 14 13 13 14 14 15 16 17 17 17 17 18 18 17 17 17 16 15 15 16 16 16 15 14 13 12 11 10 10 9 8 8 7 6 5 5 4 4 4 4 5 5 5 6 6 7 7 7 7 7 6 6 5 4 4 4 4 4 4 4 4 5 5 6 6 7 7 7 7 7 8 10 11
11 11 12 14 14 13 13 13 13 14 15 15 15 15 13 11 12 12 13 13 13 13 13 13 14 14 14 14 14 14 14 14 14 14 14 14 14 13 12 11 11 10 10 9 8 7 7 6 5 4 4 4 4 4 4 5 5 5 6 6 6 6 6 6 6 5 5 4 3 4 4 4 4 5 5 7 8 8 8 8 8 9 10 10 10 11 12
12 11 12 12 13 13 12 11 11 13 14 13 12 12 10 9 9 10 10 10 10 10 10 10 11 12 12 12 12 13 13 13 13 13 14 14 14 13 13 12 12 11 10 10 9 9 8 7 6 5 5 5 5 5 4 5 5 5 5 5 4 4 4 4 4 4 4 2 2 2 3 4 5 5 6 8 9 10 9 9 9 10 11 11 11 12 13
10 10 10 10 9 10 9 8 8 9 10 10 9 8 7 6 7 7 8 8 9 9 9 9 10 10 11 12 13 13 14 14 15 15 15 15 14 14 14 14 14 13 13 12 12 11 10 9 8 7 7 7 6 6 5 5 5 4 4 3 2 2 2 3 4 4 3 3 2 2 2 3 5 6 6 7 8 8 8 8 9 9 10 10 10 11 12
9 8 7 7 7 7 6 5 4 5 6 6 6 5 4 4 5 7 8 8 9 9 9 9 10 10 11 12 13 14 14 15 15 15 14 14 13 13 13 13 14 14 14 14 13 13 12 11 10 10 9 9 8 7 5 4 3 2 2 1 1 2 2 3 4 4 4 4 5 4 3 3 4 5 6 6 7 7 6 6 7 7 8 8 9 10 11
9 8 7 7 8 8 6 4 4 4 5 4 4 3 3 4 6 7 8 8 9 8 8 8 8 8 9 10 10 11 11 12 12 12 11 11 10 11 11 12 12 13 13 13 13 13 13 12 11 11 10 10 9 9 7 4 3 2 1 1 2 2 2 3 4 4 3 3 4 4 3 3 4 4 4 5 5 5 5 5 6 6 7 8 9 11 12
Wind_Direction
267 246 251 244 180 238 247 224 238 249 223 186 188 209 201 154 181 248 230 185 208 235 238 245 246 243 260 285 301 297 188 132 95 86 80 65 51 38 30 23 14 10 5 359 355 350 345 340 334 329 325 320 317 316 312 307 306 307 303 299 300 298 291 284 280 277 275 273 271 271 271 270 269 266 262 257 252 247 241 238 237 235 234 236 239 241 243
303 278 260 236 198 251 280 247 242 242 216 205 212 225 208 185 220 246 216 196 227 232 220 236 241 234 266 297 302 248 170 126 93 104 85 52 37 24 15 9 2 356 352 348 346 342 338 334 329 325 322 318 316 315 313 309 305 302 299 297 295 294 292 292 290 286 280 276 276 277 276 275 274 273 270 262 253 248 243 236 232 230 231 233 236 238 238
298 285 278 245 191 203 246 256 251 248 242 235 229 232 217 203 242 257 236 232 253 247 226 240 257 274 286 278 244 196 150 105 120 117 73 43 28 14 5 357 349 343 339 336 333 331 329 328 326 323 319 316 313 312 310 309 306 302 300 298 296 293 291 291 290 287 282 277 276 275 273 274 274 273 271 264 252 243 238 230 224 224 229 232 233 234 234
271 257 269 273 277 263 257 258 251 237 233 229 221 215 196 190 224 251 252 251 257 252 232 239 258 272 249 202 190 172 112 115 131 88 37 19 7 358 351 345 339 335 331 326 324 322 321 320 318 318 315 312 310 309 308 306 304 303 300 298 296 295 294 293 288 283 281 279 277 273 270 272 273 272 269 263 249 236 228 220 217 220 225 228 230 230 231
262 249 247 265 352 323 272 247 224 218 220 226 232 242 223 204 202 221 237 237 241 248 214 214 238 242 189 187 183 147 133 164 127 38 15 2 352 346 341 336 332 329 325 321 318 315 314 313 313 314 314 313 311 309 307 305 304 302 299 298 297 296 294 294 290 282 275 273 274 274 273 274 275 271 266 255 239 225 216 211 213 216 219 223 226 229 233
262 281 310 38 350 274 254 241 213 211 219 224 228 239 241 226 213 214 236 255 277 260 207 199 206 191 154 234 293 327 236 170 117 13 1 354 348 342 337 333 329 326 322 318 315 313 312 311 312 313 314 314 312 309 307 306 304 302 300 298 297 296 294 292 289 283 275 270 269 270 271 273 272 268 261 246 227 214 208 207 209 210 211 217 225 232 238
245 290 39 14 267 247 255 296 274 221 208 203 219 245 265 268 267 269 287 298 274 238 218 200 183 156 12 337 318 310 260 185 17 350 347 345 341 337 334 331 329 327 322 318 316 314 313 313 313 314 314 312 309 307 307 306 304 303 302 299 297 296 294 290 287 282 275 268 267 267 268 270 267 261 250 231 214 206 204 205 205 205 208 215 226 234 240
207 113 122 191 244 268 304 322 326 7 42 74 211 281 313 326 276 251 287 290 271 250 223 189 164 342 343 338 323 302 251 209 318 335 332 332 331 329 328 326 325 323 320 318 316 314 313 314 315 316 315 312 308 306 306 306 305 303 300 298 297 296 294 291 287 282 274 266 264 266 267 266 261 252 235 216 204 199 198 199 202 206 208 215 226 232 239
165 165 213 241 294 310 313 324 341 11 14 8 160 221 296 308 271 182 328 328 321 307 284 282 321 343 353 343 326 316 267 251 304 318 317 320 321 321 321 319 317 318 316 314 313 313 312 312 313 315 315 313 310 308 307 307 306 304 299 297 296 296 293 291 286 282 274 264 260 263 264 261 255 244 222 204 197 197 198 199 201 205 207 214 222 230 238
118 128 284 310 326 288 268 269 282 268 226 243 192 140 265 295 335 21 10 345 326 302 289 293 302 12 19 328 301 322 323 294 303 311 313 315 315 314 315 314 313 312 312 311 311 311 311 311 312 313 312 311 310 309 309 310 308 303 299 298 299 297 293 289 284 281 273 261 258 261 258 253 249 234 211 198 196 197 199 197 195 199 206 213 221 231 242
101 128 226 244 214 239 248 255 279 308 312 258 148 82 256 264 336 357 359 340 330 319 304 284 188 100 54 250 280 316 327 313 310 313 314 314 312 311 312 311 310 310 309 309 309 310 311 311 312 312 310 310 308 307 309 311 308 303 300 302 303 298 291 285 281 277 269 258 255 252 245 241 232 214 198 192 191 191 191 191 192 197 206 215 226 239 253
208 157 203 237 226 241 238 241 284 314 334 96 99 33 258 274 317 335 335 320 329 327 311 282 172 186 227 250 294 314 318 314 313 315 316 316 314 313 312 310 309 308 307 307 309 311 311 311 311 310 308 306 304 304 307 308 306 305 304 304 302 295 286 282 278 274 264 250 245 243 240 233 216 200 189 179 174 174 176 182 189 199 211 224 239 253 266
210 188 221 272 260 245 241 257 296 328 9 117 141 211 243 288 319 332 331 315 319 318 299 259 220 249 269 288 303 307 307 309 311 313 315 315 314 313 313 312 311 308 306 308 310 311 311 310 308 306 303 301 300 302 303 302 302 304 304 302 301 295 285 277 274 268 251 233 231 231 223 211 199 190 183 173 170 174 180 188 200 212 222 234 250 270 292
201 181 188 284 283 258 217 257 333 9 56 170 225 268 286 303 324 340 340 328 323 318 303 284 277 287 298 304 303 303 305 307 309 312 313 313 312 311 312 313 313 310 308 310 312 312 310 307 303 301 299 298 299 301 300 298 299 300 300 299 298 292 282 273 264 250 231 220 214 205 193 185 178 172 170 174 184 192 194 195 196 199 207 237 302 325 331
211 141 140 274 270 255 222 285 9 45 86 260 289 301 301 305 326 337 331 323 321 315 306 303 303 304 307 305 303 305 306 306 309 312 312 311 310 311 312 313 312 311 311 312 313 312 308 303 299 297 296 297 300 301 299 298 299 297 295 295 292 283 271 256 237 221 208 196 187 178 170 166 163 159 158 163 169 169 165 157 138 118 77 27 9 354 342
146 163 186 198 209 202 186 236 225 141 322 310 306 300 287 287 313 325 318 315 316 311 306 308 309 308 308 306 306 307 306 305 306 308 310 310 308 309 311 311 311 312 312 313 313 310 306 304 299 295 295 298 301 300 300 301 301 296 292 290 283 264 244 226 204 187 177 170 165 160 155 155 157 155 150 149 145 134 120 104 85 66 45 30 17 3 353
206 207 231 257 274 283 291 275 250 283 317 316 308 298 283 279 295 311 312 312 312 309 306 306 306 306 307 308 310 309 307 304 302 302 304 306 306 307 308 307 310 312 312 311 309 307 307 306 301 297 299 302 302 303 306 306 301 296 292 282 253 226 209 191 175 164 158 154 151 147 144 146 149 147 143 143 139 123 104 89 76 64 52 40 27 15 5
290 272 257 261 275 284 289 282 272 292 306 307 305 306 297 287 291 302 308 310 310 308 306 302 300 301 302 304 306 307 306 304 300 298 298 299 302 303 304 306 310 311 309 306 304 305 308 307 303 302 305 306 307 309 310 307 301 292 270 231 204 187 175 164 157 151 143 136 132 129 127 125 126 125 124 122 120 116 110 98 85 74 61 45 30 18 8
315 293 273 284 288 287 291 293 292 298 302 300 305 315 312 305 304 304 306 309 309 308 305 302 300 299 299 299 300 301 302 303 301 297 295 295 297 298 300 305 309 307 303 302 302 303 306 305 302 304 307 309 311 312 310 305 293 241 196 177 163 154 148 143 138 133 128 124 121 119 117 116 115 113 113 114 114 114 110 99 87 75 58 42 29 17 8
243 258 278 287 286 286 290 293 294 299 304 301 305 312 312 309 307 305 303 304 304 303 302 301 299 298 296 295 296 297 299 302 301 297 293 292 293 294 298 304 305 299 295 297 298 300 303 302 299 300 305 308 311 316 318 292 185 164 154 145 138 134 132 129 126 123 122 122 121 119 118 116 115 117 121 121 116 112 105 93 79 65 51 38 26 16 9
280 279 281 284 287 292 296 297 298 302 304 302 303 307 307 305 305 303 301 301 302 301 300 298 296 294 292 289 291 294 296 297 297 296 293 292 291 292 297 301 299 291 287 290 296 300 301 298 291 290 297 298 279 131 120 132 141 139 135 132 131 130 128 125 124 123 124 127 127 124 123 123 124 126 127 123 116 108 96 83 69 56 45 35 23 15 10
278 262 274 285 295 292 291 296 301 304 305 304 303 302 301 301 302 302 300 300 301 299 296 294 293 292 290 287 290 293 293 293 294 294 292 290 289 291 295 297 295 289 284 287 295 300 299 292 278 274 284 276 195 160 146 140 137 135 133 132 130 129 129 129 128 126 125 125 124 124 127 133 134 131 126 120 111 101 89 78 64 47 36 28 19 12 8
259 269 281 288 287 274 283 293 299 301 303 303 299 298 298 298 299 301 301 300 300 300 298 296 292 290 288 289 292 293 291 290 291 292 290 287 287 290 292 291 293 293 289 288 292 296 297 288 265 257 266 228 174 165 154 140 133 132 132 130 128 128 130 130 130 128 125 124 124 126 132 136 133 127 122 117 109 97 82 67 51 36 26 19 12 7 3
275 284 290 293 292 285 287 292 294 296 299 299 297 298 300 299 300 303 302 300 299 300 300 297 293 290 289 290 291 291 290 290 291 290 287 284 285 286 286 287 292 295 293 291 288 289 290 279 251 238 212 157 150 149 143 135 130 131 133 133 133 135 134 132 133 133 130 128 128 132 139 140 132 123 119 114 103 85 65 48 35 24 14 9 6 3 360
291 293 297 299 294 289 291 293 292 293 296 298 299 301 302 302 301 301 301 300 299 298 298 298 297 295 291 288 289 289 288 288 288 285 282 281 281 281 282 287 292 294 294 293 286 281 280 263 236 212 166 147 146 148 145 138 134 138 143 145 147 146 142 138 138 139 138 137 138 144 149 146 135 122 112 99 83 66 50 35 23 12 3 0 0 358 356
304 303 304 302 296 293 293 293 291 293 297 296 294 293 295 297 297 297 297 298 298 299 299 299 300 298 292 287 287 286 286 285 282 280 279 279 280 280 283 288 292 293 293 290 279 274 268 242 220 199 165 152 150 152 151 146 143 147 156 162 162 158 153 148 149 153 155 154 153 155 157 151 137 121 102 82 67 55 43 28 12 357 348 347 350 351 352
311 310 306 299 295 296 297 293 292 295 296 291 287 287 290 292 294 295 296 297 298 300 300 301 301 297 290 286 286 286 284 282 279 278 278 279 282 285 288 290 291 290 289 283 271 263 246 221 214 200 173 158 152 151 154 156 156 159 163 164 163 164 163 162 163 165 166 166 164 164 167 163 144 117 93 79 64 48 36 21 360 333 326 334 342 346 349
314 313 306 291 286 293 297 296 295 295 293 290 289 290 293 294 295 294 295 296 299 300 301 303 302 296 289 287 286 282 279 278 279 280 281 283 287 290 291 291 288 284 283 275 255 236 218 207 201 184 169 162 156 154 159 168 174 176 174 169 168 172 174 175 176 175 175 174 169 167 172 172 152 120 98 91 69 42 28 9 343 327 327 334 340 342 346
313 313 308 299 297 298 297 294 294 298 300 299 298 297 296 296 295 293 293 296 299 300 301 305 305 296 286 283 281 276 275 277 280 283 285 287 289 290 288 285 278 273 266 238 205 198 199 189 173 165 165 168 168 166 170 178 184 187 185 182 182 183 182 181 180 178 176 173 163 161 172 178 168 143 122 114 76 17 351 331 325 326 330 334 335 336 341
315 313 312 312 314 313 305 296 294 300 305 306 304 300 296 294 293 293 294 295 297 298 302 304 297 279 267 269 275 279 280 281 283 284 283 281 278 270 258 248 241 231 206 183 176 180 181 170 163 163 170 176 178 181 184 185 186 189 191 190 189 186 182 178 175 173 172 168 160 159 168 175 173 166 162 175 303 320 316 314 316 320 323 325 327 331 338
313 312 314 317 317 317 316 312 310 309 308 306 303 300 298 297 296 296 297 299 299 299 293 273 249 244 253 269 282 287 283 278 277 271 257 245 234 219 205 199 196 186 177 174 172 169 166 165 167 173 179 181 186 194 197 191 189 192 193 188 183 179 176 172 169 167 167 167 166 166 168 170 172 177 196 267 309 312 309 309 312 315 317 318 321 328 336
311 312 317 318 316 315 317 318 317 313 308 304 301 301 302 304 302 303 306 309 303 249 208 205 208 222 256 280 219 130 122 117 113 113 116 125 139 149 156 165 172 171 167 164 160 157 160 166 172 177 180 183 190 197 194 189 189 190 188 182 179 179 179 174 168 166 166 168 172 174 172 172 174 184 238 304 315 311 307 309 313 316 318 318 319 326 334
311 314 317 318 319 319 317 318 320 317 315 317 318 314 311 309 308 311 319 24 149 160 165 156 142 134 131 132 128 121 117 115 111 105 100 97 99 105 112 124 137 142 140 142 145 149 154 161 166 172 178 184 188 187 185 184 185 186 186 185 184 186 183 173 168 170 173 174 176 176 176 175 174 174 320 322 321 317 314 314 317 320 320 318 317 322 330
313 315 315 314 314 312 310 312 314 313 318 331 335 325 307 303 316 72 126 135 140 139 130 126 127 125 123 121 116 110 107 104 98 95 94 93 94 94 96 101 109 117 121 126 131 132 132 137 147 160 172 174 172 173 176 178 181 184 185 184 183 185 184 176 173 179 183 179 175 176 178 176 175 261 314 315 317 319 317 318 319 319 316 313 313 318 327
322 318 313 312 313 311 308 307 307 309 316 324 329 78 133 124 121 125 126 123 117 115 116 117 115 110 107 104 99 93 91 88 83 83 87 91 93 96 99 100 103 105 107 108 109 109 110 115 119 124 131 140 147 156 164 173 180 183 183 182 182 183 186 186 184 185 186 178 174 180 188 197 237 293 305 309 313 316 317 319 320 318 315 314 316 323 330
326 321 317 319 323 323 319 315 312 313 314 259 139 128 119 115 115 115 114 111 110 112 112 110 107 103 98 92 88 85 83 81 80 80 81 83 88 95 100 100 98 97 96 93 90 90 93 99 107 119 130 135 137 146 158 169 172 167 166 175 185 190 194 194 188 184 186 183 177 185 208 261 290 301 307 308 308 312 316 320 322 322 321 322 325 330 334
332 327 324 327 330 328 326 332 339 102 130 126 121 115 113 112 110 109 111 111 109 108 106 103 100 96 91 88 85 81 77 74 73 73 72 74 79 85 86 85 85 86 86 84 82 83 87 90 97 114 131 133 131 136 151 165 167 146 147 165 179 186 191 189 179 177 185 186 177 193 290 307 301 299 299 298 303 310 316 318 321 323 324 327 331 335 338
334 330 326 332 346 13 75 100 109 115 115 111 106 105 106 107 106 105 105 102 99 96 94 92 92 91 91 89 85 81 77 74 71 69 67 66 68 71 71 70 70 72 72 71 71 76 81 83 86 93 100 103 103 103 106 114 125 131 139 151 156 159 167 170 163 162 172 180 239 277 291 296 290 286 286 292 301 308 312 315 319 322 325 330 334 336 338
341 342 346 33 88 102 106 106 105 105 105 104 103 102 103 102 101 98 95 93 91 90 89 89 90 90 89 87 85 82 79 76 73 70 68 64 62 64 66 66 65 66 68 68 67 69 72 74 77 80 82 84 87 87 86 87 96 111 124 133 138 142 146 143 135 136 233 290 284 279 281 282 280 281 286 295 303 309 312 316 320 324 328 333 336 336 338
14 61 89 99 103 105 106 104 103 102 101 101 100 100 100 99 97 95 93 91 89 87 84 84 84 82 80 80 80 79 79 77 76 75 73 70 68 68 69 67 65 66 68 70 71 72 74 76 78 80 81 82 83 84 83 82 83 91 107 121 130 137 139 134 134 164 225 259 266 269 272 274 277 285 293 300 307 314 316 320 324 328 331 334 337 337 337
78 101 106 107 107 107 106 105 105 104 103 101 100 100 100 98 95 94 92 90 88 85 81 78 77 76 76 75 74 74 75 75 75 76 77 76 73 70 68 65 62 60 62 63 66 70 72 72 73 75 75 75 75 74 74 75 76 80 88 97 104 110 116 120 127 140 150 160 184 225 254 267 281 296 304 309 314 320 323 326 330 334 334 335 337 338 338
98 109 111 110 110 109 108 109 109 108 106 105 104 103 100 97 95 93 91 88 85 81 77 73 72 73 75 74 73 72 70 67 67 70 72 71 69 68 67 64 62 60 60 60 61 65 67 68 69 69 67 67 68 66 64 67 73 77 83 90 94 97 102 106 111 122 134 148 172 226 282 292 296 304 311 315 320 326 332 337 341 344 342 340 340 342 344
106 113 114 114 114 113 112 113 114 112 110 109 107 103 98 94 92 90 87 84 79 75 72 70 69 68 70 71 72 72 71 68 66 67 68 68 67 64 63 62 61 61 60 58 57 60 64 66 68 68 65 64 65 62 57 58 62 66 74 84 89 90 93 93 82 79 70 26 1 326 309 312 313 316 321 328 334 341 348 353 355 356 354 351 352 355 356
114 118 119 120 121 121 119 118 118 117 115 112 107 102 97 94 91 88 84 81 77 73 70 69 68 67 67 68 69 71 73 72 69 67 69 71 69 64 61 59 58 57 56 54 52 52 56 59 60 60 57 55 55 53 48 46 48 49 52 56 58 60 65 64 56 51 45 32 24 15 355 347 342 339 339 344 346 351 358 4 7 7 5 2 4 6 4
119 122 125 127 128 128 128 126 123 121 119 114 107 102 99 95 91 86 81 77 74 71 69 67 66 64 64 64 64 66 69 69 68 66 64 64 62 59 55 53 53 53 53 51 48 49 52 54 52 49 45 41 39 37 31 27 26 26 25 24 21 21 22 23 24 28 29 29 33 34 24 9 4 0 356 356 357 2 9 14 16 15 13 11 9 8 6
113 121 126 129 130 130 130 128 126 125 124 118 111 108 103 96 90 85 77 71 67 65 63 61 60 59 57 57 56 57 57 57 59 60 58 55 54 52 47 44 45 45 43 41 41 43 45 44 42 38 32 26 23 18 14 10 6 3 3 4 2 0 359 359 1 7 14 22 32 41 39 30 25 20 14 11 8 2 2 8 13 15 16 17 15 12 10
100 108 113 117 120 122 124 126 128 129 128 121 113 110 105 96 88 80 70 62 59 56 54 55 57 57 55 52 50 48 45 43 45 49 49 48 47 44 40 37 37 35 31 30 29 27 26 28 26 19 11 3 358 352 350 350 347 342 342 344 343 343 345 347 349 355 1 10 22 34 43 44 38 28 17 6 357 353 357 5 9 5 2 4 6 5 5
94 96 101 105 107 109 115 122 124 123 120 116 112 110 105 94 83 74 64 56 52 51 51 54 58 59 57 53 49 46 42 38 38 40 40 36 33 30 27 26 25 23 22 20 17 14 13 9 0 351 342 334 327 324 326 327 325 322 322 324 326 327 330 333 336 340 345 357 20 37 48 46 37 26 13 4 2 8 17 21 19 13 8 5 3 0 360
111 112 114 111 105 103 108 115 118 119 119 116 112 109 102 87 75 70 63 54 48 48 51 56 59 59 56 51 45 40 38 35 34 35 33 26 20 17 16 15 14 14 15 13 11 9 5 358 350 341 330 319 313 310 310 309 309 308 308 309 309 312 318 323 332 340 348 7 45 59 49 31 22 21 18 17 21 29 35 33 27 22 17 13 10 8 6
137 135 131 125 118 117 117 114 109 115 120 118 112 109 101 77 64 67 64 51 41 39 43 47 49 49 45 37 31 28 25 23 22 22 19 14 11 10 9 7 7 8 9 9 9 8 4 360 354 348 340 333 327 319 311 307 300 290 288 296 309 319 329 346 357 2 10 23 36 50 56 41 28 26 29 30 32 37 39 33 27 26 22 18 16 14 10
158 155 152 154 159 158 152 136 113 116 126 127 121 115 99 62 48 53 53 42 31 26 27 32 34 33 29 24 19 17 15 12 10 9 6 4 5 6 5 3 3 4 3 3 5 6 7 6 1 355 352 349 343 337 334 334 325 303 287 316 33 36 33 30 29 30 34 38 39 43 53 49 34 30 33 32 31 36 41 37 31 29 27 21 18 17 15
174 174 178 183 182 176 170 163 150 143 144 142 131 112 76 40 32 33 31 27 22 19 19 20 21 24 24 19 14 11 7 4 2 1 360 0 2 2 1 1 1 0 359 358 359 2 6 11 10 5 2 357 351 350 355 2 2 6 34 83 96 91 73 48 32 29 34 38 41 43 46 46 43 38 31 28 32 42 45 33 22 22 26 26 27 29 30
Height
1490 1492 1491 1493 1494 1491 1489 1489 1487 1486 1488 1490 1488 1486 1487 1489 1489 1485 1483 1483 1482 1480 1480 1480 1479 1479 1479 1479 1480 1480 1481 1481 1481 1481 1482 1482 1481 1481 1481 1480 1480 1480 1479 1479 1479 1478 1478 1478 1478 1478 1478 1478 1479 1479 1479 1479 1479 1479 1478 1478 1478 1478 1478 1477 1478 1478 1479 1480 1480 1481 1483 1484 1484 1484 1486 1489 1492 1493 1494 1496 1497 1499 1500 1500 1501 1502 1502
1490 1491 1492 1493 1493 1492 1490 1488 1486 1487 1489 1489 1487 1485 1485 1487 1483 1480 1483 1485 1481 1479 1480 1478 1477 1478 1479 1479 1478 1479 1480 1480 1480 1481 1481 1481 1481 1481 1480 1480 1479 1479 1478 1478 1477 1477 1476 1476 1476 1476 1476 1476 1476 1476 1477 1477 1477 1477 1476 1476 1476 1476 1476 1476 1476 1476 1476 1476 1477 1478 1480 1481 1481 1482 1483 1485 1488 1492 1494 1495 1496 1497 1498 1498 1499 1500 1500
1492 1490 1490 1492 1492 1492 1490 1487 1487 1488 1489 1489 1489 1488 1487 1487 1484 1481 1485 1488 1483 1479 1479 1477 1475 1477 1478 1478 1478 1479 1479 1479 1480 1481 1481 1481 1481 1481 1480 1480 1479 1478 1477 1476 1475 1475 1475 1475 1475 1475 1475 1475 1474 1474 1474 1474 1474 1474 1474 1473 1474 1473 1474 1474 1474 1474 1474 1474 1474 1475 1476 1477 1478 1479 1479 1481 1483 1486 1489 1492 1493 1495 1496 1497 1497 1497 1497
1493 1489 1487 1488 1489 1491 1490 1488 1488 1487 1485 1484 1483 1483 1484 1483 1480 1479 1482 1484 1480 1476 1477 1476 1475 1476 1476 1477 1478 1478 1478 1479 1479 1480 1480 1480 1480 1480 1479 1479 1478 1477 1476 1475 1474 1474 1474 1474 1474 1474 1473 1473 1473 1472 1472 1471 1471 1471 1471 1471 1470 1470 1471 1471 1471 1472 1471 1471 1471 1472 1472 1473 1474 1475 1477 1478 1481 1482 1484 1487 1490 1491 1492 1495 1495 1495 1495
1493 1490 1489 1489 1490 1492 1488 1483 1482 1480 1479 1478 1477 1478 1479 1477 1476 1476 1477 1476 1474 1474 1475 1474 1474 1475 1476 1476 1477 1478 1478 1478 1479 1479 1479 1479 1478 1478 1477 1477 1476 1475 1475 1474 1474 1473 1473 1473 1472 1472 1471 1471 1470 1470 1469 1468 1468 1468 1468 1467 1467 1467 1468 1468 1468 1469 1468 1468 1468 1469 1469 1470 1470 1472 1473 1475 1477 1479 1480 1483 1485 1486 1488 1492 1493 1493 1493
1491 1493 1493 1493 1496 1494 1483 1475 1475 1475 1474 1475 1475 1473 1473 1473 1474 1474 1473 1473 1474 1475 1475 1473 1474 1475 1476 1476 1476 1477 1477 1478 1478 1478 1478 1478 1477 1477 1476 1476 1475 1474 1474 1473 1473 1472 1471 1471 1470 1470 1469 1469 1468 1467 1466 1466 1465 1465 1464 1464 1464 1464 1464 1464 1464 1465 1465 1465 1465 1465 1466 1466 1467 1468 1470 1471 1473 1475 1477 1479 1481 1482 1485 1489 1491 1492 1491
1494 1496 1496 1497 1496 1487 1476 1474 1477 1476 1474 1474 1474 1472 1472 1474 1475 1475 1474 1474 1475 1474 1473 1474 1475 1475 1475 1475 1475 1476 1476 1477 1477 1477 1477 1477 1476 1476 1475 1474 1474 1473 1473 1472 1471 1470 1469 1469 1468 1468 1467 1466 1465 1464 1463 1462 1462 1461 1461 1460 1460 1460 1460 1460 1460 1460 1461 1461 1461 1461 1462 1463 1464 1465 1467 1469 1471 1473 1475 1477 1479 1480 1482 1486 1489 1490 1490
1496 1497 1497 1495 1489 1480 1474 1475 1477 1476 1475 1476 1475 1474 1475 1477 1477 1476 1475 1475 1475 1474 1474 1474 1475 1475 1475 1475 1475 1475 1475 1476 1476 1476 1476 1476 1475 1474 1474 1473 1472 1472 1471 1470 1469 1467 1466 1466 1465 1464 1464 1462 1461 1460 1460 1459 1458 1458 1457 1456 1455 1455 1455 1456 1456 1456 1457 1457 1457 1458 1458 1459 1461 1462 1464 1466 1468 1470 1472 1475 1477 1478 1481 1484 1486 1487 1487
1494 1496 1495 1490 1484 1480 1477 1476 1478 1479 1479 1479 1478 1476 1477 1478 1478 1478 1477 1476 1476 1476 1475 1475 1476 1475 1475 1475 1475 1475 1475 1476 1476 1476 1475 1475 1474 1473 1473 1472 1471 1470 1469 1468 1467 1465 1464 1463 1462 1461 1460 1459 1457 1456 1455 1455 1454 1454 1453 1452 1451 1451 1451 1451 1452 1452 1452 1453 1453 1454 1455 1456 1458 1460 1462 1464 1466 1467 1469 1472 1474 1477 1480 1482 1483 1484 1484
1493 1496 1495 1491 1488 1485 1481 1479 1481 1481 1480 1481 1481 1480 1478 1478 1478 1478 1478 1477 1477 1477 1476 1476 1476 1476 1478 1478 1476 1475 1476 1476 1475 1475 1474 1473 1473 1472 1471 1470 1469 1468 1467 1466 1465 1463 1462 1460 1459 1459 1457 1455 1454 1452 1451 1451 1451 1449 1448 1447 1448 1447 1447 1447 1447 1447 1448 1448 1449 1450 1451 1454 1456 1458 1460 1461 1463 1465 1467 1470 1473 1476 1478 1480 1480 1481 1481
1492 1493 1494 1493 1489 1484 1482 1481 1480 1480 1480 1481 1481 1481 1480 1478 1477 1478 1477 1477 1477 1477 1476 1477 1477 1478 1480 1479 1475 1474 1475 1475 1474 1473 1472 1472 1471 1470 1469 1468 1467 1466 1465 1463 1462 1461 1459 1457 1457 1455 1454 1452 1450 1448 1448 1447 1446 1445 1444 1444 1443 1443 1442 1442 1442 1443 1443 1444 1445 1447 1448 1451 1454 1456 1457 1458 1460 1463 1466 1469 1472 1474 1476 1478 1478 1478 1479
1491 1492 1493 1492 1486 1482 1481 1481 1479 1479 1480 1480 1481 1482 1480 1477 1477 1477 1476 1476 1476 1476 1476 1477 1478 1478 1478 1476 1473 1473 1472 1472 1472 1471 1470 1469 1468 1467 1466 1466 1465 1463 1462 1461 1459 1458 1456 1455 1453 1452 1450 1449 1447 1445 1444 1443 1442 1440 1440 1440 1439 1438 1437 1437 1437 1438 1439 1440 1442 1443 1446 1449 1451 1454 1457 1460 1462 1464 1467 1469 1471 1473 1475 1476 1476 1476 1476
1490 1492 1493 1490 1484 1480 1481 1480 1478 1478 1478 1479 1482 1482 1479 1477 1477 1476 1475 1475 1475 1475 1475 1476 1476 1475 1474 1473 1472 1471 1470 1469 1469 1468 1467 1466 1465 1464 1463 1463 1462 1460 1459 1458 1456 1455 1453 1452 1450 1449 1447 1445 1443 1442 1441 1439 1437 1436 1436 1435 1434 1433 1432 1432 1432 1433 1435 1436 1438 1441 1444 1446 1449 1452 1456 1461 1464 1467 1469 1470 1471 1472 1473 1474 1474 1474 1474
1491 1492 1493 1490 1485 1480 1479 1479 1478 1477 1479 1481 1481 1479 1477 1476 1476 1475 1474 1474 1474 1474 1474 1473 1473 1472 1471 1471 1470 1469 1468 1467 1465 1465 1464 1463 1462 1462 1460 1460 1459 1457 1455 1454 1453 1451 1450 1449 1447 1446 1444 1442 1440 1439 1437 1435 1434 1433 1431 1430 1429 1428 1427 1428 1428 1429 1431 1433 1436 1439 1442 1445 1448 1451 1455 1460 1464 1467 1469 1470 1470 1470 1471 1472 1472 1472 1472
1493 1494 1493 1492 1486 1480 1479 1479 1479 1479 1481 1482 1479 1476 1476 1476 1474 1474 1474 1473 1473 1473 1472 1471 1471 1470 1469 1468 1467 1466 1465 1464 1463 1462 1461 1459 1459 1458 1457 1456 1456 1454 1452 1450 1449 1447 1446 1445 1444 1443 1441 1438 1437 1435 1432 1431 1430 1429 1427 1426 1424 1423 1423 1424 1425 1427 1429 1432 1435 1438 1441 1445 1449 1453 1456 1460 1464 1467 1468 1469 1468 1468 1469 1470 1470 1471 1471
1492 1492 1489 1486 1482 1478 1478 1479 1479 1479 1480 1480 1478 1476 1475 1474 1473 1473 1472 1472 1472 1471 1470 1469 1469 1467 1466 1465 1464 1463 1462 1461 1460 1459 1458 1457 1456 1454 1454 1453 1452 1451 1449 1447 1445 1444 1443 1442 1441 1439 1438 1435 1433 1431 1428 1426 1425 1424 1422 1421 1420 1419 1421 1422 1424 1426 1428 1431 1435 1438 1441 1445 1450 1454 1457 1460 1463 1465 1467 1467 1467 1467 1468 1468 1468 1469 1469
1488 1486 1483 1479 1478 1477 1479 1479 1478 1478 1478 1477 1476 1475 1474 1473 1472 1472 1471 1470 1470 1469 1469 1468 1466 1465 1464 1463 1462 1461 1459 1458 1457 1456 1456 1455 1453 1452 1451 1450 1449 1448 1446 1444 1442 1440 1440 1439 1437 1436 1435 1433 1430 1427 1425 1423 1421 1419 1418 1417 1417 1418 1420 1422 1424 1426 1429 1432 1436 1439 1443 1447 1451 1454 1457 1459 1461 1463 1465 1466 1466 1466 1467 1467 1467 1467 1467
1485 1482 1479 1478 1478 1477 1477 1477 1477 1476 1475 1475 1474 1473 1472 1471 1471 1470 1470 1469 1468 1467 1467 1465 1464 1463 1462 1460 1459 1458 1457 1455 1455 1453 1452 1452 1451 1450 1449 1448 1447 1446 1443 1441 1440 1438 1437 1436 1435 1433 1432 1430 1428 1425 1422 1419 1417 1416 1416 1416 1416 1418 1420 1422 1425 1428 1430 1434 1438 1441 1445 1448 1452 1455 1457 1458 1460 1462 1464 1465 1465 1466 1466 1466 1466 1466 1465
1487 1482 1478 1477 1477 1476 1475 1475 1474 1473 1473 1472 1472 1471 1470 1470 1469 1469 1468 1467 1466 1465 1464 1463 1461 1460 1459 1458 1457 1456 1454 1453 1451 1451 1450 1449 1448 1448 1446 1446 1445 1443 1441 1439 1437 1436 1435 1434 1433 1432 1431 1429 1426 1423 1420 1417 1416 1415 1415 1416 1418 1420 1422 1425 1428 1430 1432 1436 1439 1443 1447 1450 1453 1455 1457 1459 1460 1462 1463 1464 1465 1465 1465 1465 1465 1465 1464
1486 1483 1479 1476 1475 1474 1473 1473 1472 1471 1471 1470 1470 1470 1469 1468 1467 1467 1466 1465 1464 1462 1461 1460 1458 1456 1455 1455 1454 1452 1451 1450 1449 1448 1447 1446 1445 1445 1444 1443 1442 1440 1439 1437 1436 1434 1434 1433 1432 1431 1430 1428 1426 1423 1421 1418 1417 1417 1418 1420 1422 1425 1428 1430 1431 1433 1435 1438 1441 1445 1448 1451 1454 1456 1458 1459 1461 1462 1463 1463 1464 1464 1464 1464 1463 1463 1462
1484 1481 1477 1475 1474 1472 1470 1470 1470 1470 1470 1468 1468 1467 1466 1466 1465 1464 1463 1462 1461 1460 1458 1457 1456 1454 1452 1451 1451 1449 1448 1447 1446 1446 1445 1444 1443 1442 1441 1440 1439 1437 1436 1435 1434 1433 1432 1432 1431 1430 1429 1428 1427 1425 1423 1422 1421 1421 1422 1424 1426 1429 1432 1434 1436 1437 1439 1441 1444 1447 1450 1452 1455 1457 1459 1460 1461 1461 1462 1463 1463 1463 1463 1462 1462 1461 1460
1484 1480 1475 1474 1474 1472 1468 1466 1467 1468 1468 1467 1465 1464 1463 1462 1462 1461 1460 1459 1458 1457 1455 1454 1453 1451 1449 1448 1448 1446 1445 1444 1443 1442 1442 1441 1439 1439 1438 1437 1435 1434 1433 1433 1432 1431 1431 1430 1429 1428 1428 1427 1427 1427 1427 1426 1426 1426 1426 1428 1430 1432 1434 1436 1439 1441 1442 1444 1446 1449 1451 1453 1455 1457 1459 1460 1460 1461 1461 1462 1462 1462 1461 1461 1460 1460 1459
1480 1476 1473 1473 1473 1471 1467 1465 1464 1464 1465 1464 1462 1460 1460 1458 1458 1457 1456 1455 1454 1453 1452 1451 1450 1448 1446 1445 1444 1443 1441 1441 1440 1439 1438 1437 1436 1436 1435 1433 1432 1431 1431 1430 1430 1429 1429 1428 1428 1427 1427 1426 1427 1428 1429 1429 1430 1430 1431 1431 1433 1435 1437 1439 1441 1443 1444 1446 1448 1450 1452 1454 1455 1457 1458 1459 1460 1460 1461 1461 1461 1460 1460 1459 1459 1458 1458
1476 1474 1472 1471 1470 1467 1464 1463 1462 1461 1461 1461 1458 1456 1456 1455 1454 1454 1453 1452 1451 1449 1447 1447 1446 1445 1443 1442 1441 1439 1438 1437 1436 1436 1435 1434 1433 1432 1431 1430 1429 1428 1428 1427 1427 1426 1426 1426 1426 1426 1426 1426 1427 1429 1430 1431 1432 1433 1433 1434 1435 1437 1439 1441 1443 1445 1446 1447 1449 1451 1452 1454 1456 1457 1458 1459 1459 1459 1459 1459 1459 1459 1459 1459 1458 1457 1456
1475 1472 1470 1469 1467 1463 1460 1459 1458 1457 1458 1457 1454 1452 1452 1452 1451 1450 1449 1448 1447 1446 1444 1442 1441 1441 1439 1438 1437 1436 1434 1433 1433 1432 1431 1430 1430 1429 1428 1427 1426 1425 1425 1424 1424 1424 1424 1424 1424 1425 1426 1427 1428 1430 1431 1432 1433 1434 1435 1436 1438 1439 1441 1443 1445 1446 1448 1449 1450 1452 1453 1455 1456 1457 1458 1458 1458 1458 1458 1459 1459 1459 1459 1459 1458 1457 1456
1472 1469 1467 1464 1461 1458 1457 1456 1453 1453 1454 1454 1451 1449 1448 1448 1447 1446 1445 1444 1443 1442 1440 1438 1437 1436 1435 1433 1433 1432 1430 1429 1429 1428 1427 1427 1426 1425 1425 1424 1423 1422 1422 1421 1421 1421 1422 1422 1423 1424 1425 1426 1428 1430 1431 1433 1434 1435 1436 1438 1440 1442 1444 1445 1446 1448 1449 1450 1452 1453 1454 1456 1457 1457 1458 1457 1457 1458 1459 1459 1459 1459 1459 1458 1457 1456 1455
1468 1466 1464 1460 1456 1454 1455 1453 1450 1449 1449 1449 1447 1445 1444 1444 1443 1442 1441 1440 1439 1438 1437 1435 1433 1432 1431 1430 1429 1428 1427 1426 1426 1425 1424 1423 1422 1422 1421 1420 1419 1419 1418 1418 1418 1418 1419 1420 1420 1422 1424 1426 1428 1430 1432 1434 1435 1436 1438 1441 1443 1445 1446 1447 1448 1449 1450 1451 1452 1454 1455 1456 1456 1457 1457 1457 1458 1459 1459 1459 1459 1459 1458 1458 1456 1455 1453
1463 1462 1461 1458 1454 1451 1451 1449 1447 1445 1444 1444 1443 1442 1441 1440 1439 1438 1437 1436 1436 1435 1433 1432 1430 1428 1428 1427 1426 1426 1425 1424 1423 1422 1421 1420 1419 1418 1417 1416 1416 1415 1415 1415 1416 1416 1417 1418 1419 1420 1423 1427 1429 1431 1433 1434 1435 1437 1439 1442 1444 1445 1447 1448 1449 1450 1451 1452 1453 1454 1455 1455 1456 1457 1457 1458 1458 1458 1459 1459 1459 1458 1457 1456 1455 1454 1453
1459 1458 1457 1455 1452 1449 1447 1445 1444 1442 1441 1440 1440 1439 1438 1437 1436 1435 1434 1433 1432 1431 1430 1429 1427 1426 1425 1425 1424 1424 1423 1422 1420 1419 1418 1417 1416 1415 1414 1413 1413 1413 1413 1414 1414 1415 1416 1417 1419 1421 1424 1427 1429 1431 1433 1435 1436 1438 1440 1442 1444 1446 1448 1449 1450 1451 1452 1453 1453 1454 1455 1455 1456 1457 1457 1458 1458 1458 1458 1458 1458 1457 1456 1455 1454 1454 1453
1456 1455 1453 1451 1449 1447 1444 1442 1441 1440 1439 1438 1437 1436 1436 1435 1433 1432 1431 1430 1429 1428 1427 1426 1425 1424 1424 1423 1422 1422 1421 1420 1418 1417 1416 1414 1413 1412 1411 1411 1411 1412 1413 1413 1414 1415 1416 1417 1420 1422 1425 1428 1430 1432 1433 1435 1437 1439 1441 1443 1445 1447 1449 1450 1451 1452 1452 1453 1453 1454 1454 1455 1456 1457 1457 1457 1457 1458 1458 1457 1456 1455 1455 1454 1453 1453 1452
1453 1451 1450 1448 1447 1445 1443 1441 1439 1438 1437 1436 1435 1434 1433 1432 1431 1429 1428 1427 1426 1426 1425 1424 1424 1423 1423 1422 1421 1421 1420 1419 1417 1416 1415 1413 1412 1411 1411 1411 1411 1411 1412 1413 1413 1415 1417 1419 1422 1424 1427 1429 1431 1432 1434 1436 1438 1440 1442 1444 1446 1448 1449 1450 1451 1451 1452 1453 1453 1454 1454 1455 1456 1457 1457 1457 1457 1457 1456 1456 1455 1454 1454 1453 1453 1452 1451
1451 1448 1447 1446 1445 1443 1441 1440 1438 1436 1435 1434 1433 1431 1431 1430 1429 1427 1426 1424 1424 1424 1424 1423 1423 1423 1423 1422 1421 1421 1420 1419 1418 1417 1415 1414 1413 1412 1411 1411 1411 1411 1412 1413 1414 1416 1419 1422 1424 1426 1428 1430 1431 1433 1434 1436 1438 1440 1442 1444 1446 1448 1449 1449 1450 1451 1452 1453 1453 1454 1454 1455 1456 1456 1456 1456 1456 1456 1455 1455 1454 1453 1453 1452 1452 1451 1450
1450 1447 1445 1444 1443 1441 1439 1438 1437 1435 1433 1432 1431 1430 1429 1429 1427 1426 1425 1424 1423 1423 1423 1423 1423 1423 1423 1423 1422 1422 1421 1420 1419 1417 1416 1415 1414 1413 1413 1413 1412 1412 1412 1414 1416 1419 1422 1424 1426 1428 1429 1431 1432 1433 1435 1437 1439 1442 1444 1445 1446 1447 1448 1449 1450 1451 1452 1453 1453 1454 1454 1455 1455 1455 1455 1456 1455 1455 1455 1454 1453 1453 1452 1452 1451 1450 1449
1450 1447 1446 1444 1442 1440 1438 1437 1436 1434 1432 1431 1430 1429 1428 1428 1427 1426 1425 1425 1424 1424 1424 1424 1424 1425 1425 1425 1425 1424 1423 1422 1420 1419 1418 1417 1417 1416 1416 1415 1414 1414 1415 1416 1419 1422 1424 1427 1428 1430 1431 1432 1433 1435 1437 1439 1441 1443 1445 1446 1446 1447 1448 1449 1450 1451 1452 1453 1453 1454 1454 1454 1454 1454 1455 1455 1455 1454 1454 1453 1453 1452 1452 1451 1450 1449 1448
1449 1447 1445 1443 1441 1440 1438 1436 1434 1433 1432 1431 1431 1429 1428 1428 1427 1427 1427 1427 1427 1427 1427 1427 1427 1428 1427 1427 1427 1426 1425 1424 1423 1423 1421 1420 1419 1418 1418 1417 1417 1418 1418 1419 1421 1424 1427 1429 1431 1432 1433 1433 1435 1437 1439 1441 1443 1444 1445 1446 1447 1447 1448 1449 1450 1452 1452 1453 1453 1453 1453 1453 1453 1454 1454 1454 1454 1454 1453 1453 1452 1452 1451 1450 1449 1448 1447
1448 1445 1443 1442 1440 1438 1436 1434 1433 1432 1431 1431 1431 1430 1429 1429 1429 1428 1429 1429 1430 1430 1430 1430 1430 1430 1430 1430 1429 1429 1428 1427 1427 1426 1425 1423 1422 1421 1420 1419 1420 1420 1421 1422 1425 1428 1430 1431 1433 1434 1435 1436 1438 1440 1442 1443 1443 1444 1445 1446 1447 1448 1449 1449 1450 1451 1452 1452 1453 1453 1453 1453 1453 1454 1454 1454 1454 1453 1453 1452 1452 1451 1450 1449 1448 1447 1446
1446 1444 1442 1440 1438 1437 1435 1434 1433 1432 1432 1432 1432 1431 1430 1431 1431 1431 1432 1432 1433 1434 1434 1433 1433 1433 1433 1433 1432 1432 1431 1430 1430 1429 1429 1428 1427 1425 1423 1423 1423 1424 1424 1427 1430 1431 1432 1433 1435 1436 1436 1438 1440 1441 1443 1444 1445 1445 1445 1446 1447 1448 1449 1450 1450 1451 1452 1452 1452 1452 1452 1453 1453 1453 1454 1454 1453 1453 1452 1452 1451 1450 1450 1448 1447 1446 1445
1446 1444 1442 1440 1439 1437 1436 1435 1435 1434 1433 1434 1434 1434 1434 1435 1435 1435 1436 1437 1438 1438 1438 1438 1437 1437 1437 1437 1436 1435 1434 1434 1434 1433 1433 1432 1431 1428 1427 1428 1429 1429 1430 1433 1435 1435 1435 1436 1437 1438 1438 1440 1442 1443 1444 1445 1446 1446 1447 1448 1448 1449 1449 1450 1451 1451 1452 1452 1452 1452 1452 1453 1453 1453 1453 1453 1453 1452 1452 1451 1450 1450 1449 1447 1446 1445 1444
1446 1445 1443 1442 1441 1439 1439 1438 1438 1437 1437 1437 1438 1438 1439 1439 1440 1440 1440 1441 1442 1443 1442 1442 1442 1442 1442 1441 1440 1439 1438 1438 1438 1437 1437 1436 1435 1433 1433 1433 1434 1435 1437 1438 1439 1439 1439 1440 1441 1441 1442 1443 1444 1445 1446 1447 1447 1448 1448 1449 1449 1450 1450 1450 1451 1452 1452 1452 1452 1452 1452 1452 1453 1453 1453 1452 1452 1452 1451 1450 1450 1449 1448 1447 1446 1445 1444
1448 1446 1445 1444 1443 1442 1441 1441 1441 1441 1442 1442 1443 1444 1444 1444 1444 1444 1444 1445 1446 1447 1447 1446 1446 1445 1445 1445 1444 1443 1443 1443 1442 1441 1440 1440 1439 1439 1438 1438 1439 1440 1442 1442 1443 1443 1443 1444 1444 1444 1445 1446 1446 1447 1447 1448 1448 1449 1449 1449 1450 1450 1450 1451 1451 1452 1452 1452 1452 1452 1452 1452 1452 1452 1452 1452 1451 1451 1450 1450 1449 1448 1447 1446 1445 1444 1443
1449 1448 1447 1447 1446 1445 1445 1445 1445 1446 1446 1447 1448 1449 1449 1449 1448 1448 1448 1449 1450 1450 1450 1450 1449 1449 1448 1448 1447 1447 1447 1447 1446 1445 1444 1444 1443 1443 1442 1442 1443 1445 1446 1446 1446 1446 1447 1447 1447 1447 1447 1448 1448 1449 1449 1449 1450 1450 1450 1450 1451 1451 1451 1451 1452 1452 1452 1452 1452 1452 1452 1452 1452 1452 1451 1451 1451 1450 1449 1449 1448 1447 1446 1446 1445 1444 1443
1452 1451 1450 1450 1450 1449 1449 1450 1450 1449 1450 1451 1452 1453 1453 1453 1453 1452 1453 1453 1454 1454 1453 1453 1453 1452 1452 1451 1451 1450 1450 1449 1449 1448 1447 1446 1446 1446 1446 1447 1448 1449 1449 1449 1450 1450 1450 1449 1449 1449 1450 1450 1450 1450 1451 1451 1451 1451 1451 1451 1452 1452 1452 1452 1452 1453 1453 1452 1452 1452 1451 1451 1451 1451 1451 1450 1450 1449 1449 1448 1447 1447 1446 1445 1444 1444 1443
1454 1453 1453 1453 1453 1453 1453 1453 1453 1453 1453 1454 1455 1456 1456 1456 1456 1456 1456 1457 1457 1457 1456 1456 1456 1455 1455 1454 1454 1453 1452 1452 1452 1451 1450 1449 1449 1449 1450 1451 1451 1452 1452 1452 1452 1452 1452 1452 1451 1451 1452 1452 1452 1452 1452 1452 1452 1452 1452 1452 1452 1452 1453 1453 1453 1453 1453 1452 1452 1451 1451 1451 1451 1451 1450 1450 1449 1449 1448 1448 1447 1447 1446 1445 1445 1444 1443
1456 1456 1455 1455 1455 1456 1456 1457 1456 1456 1457 1457 1458 1459 1459 1459 1459 1459 1459 1459 1459 1459 1459 1459 1458 1458 1458 1457 1456 1455 1455 1455 1455 1454 1453 1452 1452 1452 1453 1454 1454 1454 1454 1454 1454 1454 1454 1453 1453 1453 1453 1453 1453 1453 1453 1453 1453 1453 1453 1453 1453 1453 1453 1453 1453 1453 1453 1452 1452 1451 1451 1451 1451 1451 1450 1450 1449 1449 1448 1448 1447 1447 1446 1446 1445 1444 1443
1458 1458 1457 1458 1458 1458 1459 1459 1459 1460 1460 1460 1461 1462 1462 1462 1462 1462 1462 1461 1461 1461 1461 1461 1460 1460 1460 1459 1458 1458 1458 1457 1457 1457 1456 1455 1454 1455 1456 1456 1456 1456 1456 1456 1456 1455 1455 1455 1454 1454 1454 1454 1454 1454 1454 1454 1454 1454 1454 1454 1453 1453 1453 1453 1452 1452 1452 1452 1452 1452 1451 1451 1451 1451 1450 1450 1450 1449 1449 1448 1448 1447 1446 1446 1445 1444 1443
1461 1460 1460 1460 1460 1461 1461 1462 1462 1463 1463 1463 1463 1464 1464 1464 1464 1464 1464 1464 1463 1463 1463 1463 1462 1462 1461 1461 1461 1461 1460 1460 1459 1459 1458 1458 1457 1458 1458 1459 1458 1458 1458 1457 1457 1457 1456 1456 1456 1455 1455 1455 1455 1454 1454 1454 1454 1454 1454 1454 1454 1453 1453 1453 1452 1452 1452 1452 1452 1452 1451 1451 1451 1451 1450 1450 1450 1449 1449 1448 1448 1447 1446 1446 1445 1444 1443
1463 1463 1463 1463 1463 1464 1464 1464 1464 1465 1465 1465 1465 1465 1466 1466 1466 1466 1466 1466 1465 1465 1465 1465 1464 1464 1464 1464 1463 1463 1462 1462 1461 1460 1460 1460 1460 1460 1460 1460 1460 1459 1459 1459 1458 1458 1457 1457 1456 1456 1456 1455 1455 1455 1455 1455 1455 1454 1454 1454 1454 1454 1453 1453 1453 1452 1452 1452 1452 1452 1451 1451 1451 1451 1451 1450 1450 1450 1449 1448 1448 1447 1446 1446 1445 1444 1443
1466 1466 1466 1466 1466 1466 1467 1467 1467 1467 1467 1467 1467 1467 1468 1468 1468 1468 1467 1467 1467 1467 1467 1467 1466 1466 1466 1466 1465 1465 1464 1464 1463 1462 1462 1462 1462 1462 1461 1461 1461 1460 1460 1460 1459 1458 1458 1457 1457 1456 1456 1456 1455 1455 1455 1455 1455 1455 1454 1454 1454 1454 1454 1453 1453 1453 1452 1452 1452 1452 1452 1452 1452 1452 1451 1451 1450 1450 1449 1449 1448 1447 1447 1446 1445 1444 1443
1468 1469 1469 1468 1468 1468 1469 1469 1469 1468 1468 1468 1468 1469 1469 1469 1469 1469 1469 1469 1469 1468 1468 1468 1468 1468 1467 1467 1467 1466 1466 1465 1464 1464 1463 1463 1463 1462 1462 1462 1461 1461 1461 1460 1459 1459 1458 1458 1457 1457 1456 1456 1456 1456 1456 1455 1455 1455 1455 1454 1454 1454 1454 1453 1453 1453 1453 1453 1453 1453 1453 1453 1452 1452 1452 1452 1451 1451 1450 1450 1449 1448 1447 1446 1445 1445 1443
1470 1470 1470 1470 1470 1470 1470 1471 1471 1470 1470 1470 1470 1470 1470 1470 1470 1470 1470 1470 1469 1469 1469 1468 1468 1468 1468 1467 1467 1466 1466 1465 1465 1464 1464 1464 1464 1463 1462 1462 1461 1461 1460 1460 1459 1459 1458 1457 1457 1457 1456 1456 1456 1456 1456 1455 1455 1455 1454 1454 1454 1454 1454 1454 1453 1453 1453 1453 1453 1453 1453 1453 1453 1453 1453 1452 1452 1452 1451 1450 1449 1449 1448 1447 1446 1445 1444
1470 1470 1471 1471 1471 1472 1472 1472 1472 1472 1471 1471 1471 1471 1471 1471 1471 1470 1470 1470 1470 1469 1469 1469 1469 1468 1468 1468 1467 1467 1466 1465 1465 1465 1465 1465 1464 1464 1463 1462 1462 1461 1460 1460 1459 1458 1458 1457 1456 1456 1456 1455 1455 1455 1455 1455 1455 1454 1454 1454 1454 1454 1454 1454 1454 1454 1454 1454 1454 1454 1454 1454 1454 1454 1453 1453 1453 1452 1452 1451 1450 1449 1448 1448 1447 1446 1444
1470 1470 1471 1471 1472 1472 1473 1473 1473 1473 1472 1472 1472 1472 1472 1472 1471 1471 1471 1471 1470 1470 1470 1470 1469 1469 1469 1469 1468 1468 1467 1467 1467 1466 1466 1465 1465 1465 1464 1463 1463 1462 1461 1460 1459 1458 1458 1457 1457 1456 1456 1455 1455 1454 1454 1454 1454 1454 1454 1454 1454 1454 1455 1455 1455 1454 1454 1454 1454 1454 1454 1454 1454 1454 1454 1454 1453 1453 1452 1451 1451 1450 1449 1448 1447 1446 1445